Year,Month,Day,Hour,Minute,Value (Times are PST for temperature in C)
2015,08,11,00,00,15.80
2015,08,11,00,01,15.80
2015,08,11,00,02,15.80
2015,08,11,00,03,15.80
2015,08,11,00,04,15.80
2015,08,11,00,05,15.80
2015,08,11,00,06,15.80
2015,08,11,00,07,15.70
2015,08,11,00,08,15.70
2015,08,11,00,09,15.70
2015,08,11,00,10,15.70
2015,08,11,00,11,15.70
2015,08,11,00,12,15.70
2015,08,11,00,13,15.70
2015,08,11,00,14,15.70
2015,08,11,00,15,15.70
2015,08,11,00,16,15.60
2015,08,11,00,17,15.60
2015,08,11,00,18,15.60
2015,08,11,00,19,15.60
2015,08,11,00,20,15.60
2015,08,11,00,21,15.60
2015,08,11,00,22,15.50
2015,08,11,00,23,15.50
2015,08,11,00,24,15.50
2015,08,11,00,25,15.50
2015,08,11,00,26,15.50
2015,08,11,00,27,15.50
2015,08,11,00,28,15.40
2015,08,11,00,29,15.40
2015,08,11,00,30,15.40
2015,08,11,00,31,15.40
2015,08,11,00,32,15.40
2015,08,11,00,33,15.40
2015,08,11,00,34,15.40
2015,08,11,00,35,15.40
2015,08,11,00,36,15.40
2015,08,11,00,37,15.40
2015,08,11,00,38,15.40
2015,08,11,00,39,15.40
2015,08,11,00,40,15.30
2015,08,11,00,41,15.30
2015,08,11,00,42,15.30
2015,08,11,00,43,15.30
2015,08,11,00,44,15.30
2015,08,11,00,45,15.30
2015,08,11,00,46,15.30
2015,08,11,00,47,15.30
2015,08,11,00,48,15.30
2015,08,11,00,49,15.30
2015,08,11,00,50,15.30
2015,08,11,00,51,15.20
2015,08,11,00,52,15.20
2015,08,11,00,53,15.20
2015,08,11,00,54,15.20
2015,08,11,00,55,15.20
2015,08,11,00,56,15.20
2015,08,11,00,57,15.20
2015,08,11,00,58,15.20
2015,08,11,00,59,15.20
2015,08,11,01,00,15.20
2015,08,11,01,01,15.20
2015,08,11,01,02,15.20
2015,08,11,01,03,15.20
2015,08,11,01,04,15.20
2015,08,11,01,05,15.10
2015,08,11,01,06,15.10
2015,08,11,01,07,15.10
2015,08,11,01,08,15.10
2015,08,11,01,09,15.10
2015,08,11,01,10,15.00
2015,08,11,01,11,15.00
2015,08,11,01,12,15.00
2015,08,11,01,13,15.00
2015,08,11,01,14,14.90
2015,08,11,01,15,14.90
2015,08,11,01,16,14.90
2015,08,11,01,17,14.90
2015,08,11,01,18,14.90
2015,08,11,01,19,14.90
2015,08,11,01,20,14.90
2015,08,11,01,21,14.80
2015,08,11,01,22,14.80
2015,08,11,01,23,14.80
2015,08,11,01,24,14.80
2015,08,11,01,25,14.80
2015,08,11,01,26,14.80
2015,08,11,01,27,14.80
2015,08,11,01,28,14.80
2015,08,11,01,29,14.80
2015,08,11,01,30,14.80
2015,08,11,01,31,14.70
2015,08,11,01,32,14.70
2015,08,11,01,33,14.70
2015,08,11,01,34,14.70
2015,08,11,01,35,14.70
2015,08,11,01,36,14.70
2015,08,11,01,37,14.70
2015,08,11,01,38,14.70
2015,08,11,01,39,14.70
2015,08,11,01,40,14.70
2015,08,11,01,41,14.70
2015,08,11,01,42,14.70
2015,08,11,01,43,14.60
2015,08,11,01,44,14.60
2015,08,11,01,45,14.60
2015,08,11,01,46,14.60
2015,08,11,01,47,14.60
2015,08,11,01,48,14.60
2015,08,11,01,49,14.60
2015,08,11,01,50,14.50
2015,08,11,01,51,14.50
2015,08,11,01,52,14.50
2015,08,11,01,53,14.50
2015,08,11,01,54,14.50
2015,08,11,01,55,14.50
2015,08,11,01,56,14.50
2015,08,11,01,57,14.40
2015,08,11,01,58,14.40
2015,08,11,01,59,14.40
2015,08,11,02,00,14.40
2015,08,11,02,01,14.40
2015,08,11,02,02,14.40
2015,08,11,02,03,14.40
2015,08,11,02,04,14.40
2015,08,11,02,05,14.40
2015,08,11,02,06,14.40
2015,08,11,02,07,14.40
2015,08,11,02,08,14.40
2015,08,11,02,09,14.40
2015,08,11,02,10,14.40
2015,08,11,02,11,14.40
2015,08,11,02,12,14.40
2015,08,11,02,13,14.40
2015,08,11,02,14,14.40
2015,08,11,02,15,14.40
2015,08,11,02,16,14.30
2015,08,11,02,17,14.30
2015,08,11,02,18,14.30
2015,08,11,02,19,14.30
2015,08,11,02,20,14.30
2015,08,11,02,21,14.30
2015,08,11,02,22,14.30
2015,08,11,02,23,14.20
2015,08,11,02,24,14.20
2015,08,11,02,25,14.20
2015,08,11,02,26,14.20
2015,08,11,02,27,14.20
2015,08,11,02,28,14.20
2015,08,11,02,29,14.20
2015,08,11,02,30,14.20
2015,08,11,02,31,14.20
2015,08,11,02,32,14.20
2015,08,11,02,33,14.20
2015,08,11,02,34,14.20
2015,08,11,02,35,14.20
2015,08,11,02,36,14.20
2015,08,11,02,37,14.20
2015,08,11,02,38,14.20
2015,08,11,02,39,14.20
2015,08,11,02,40,14.20
2015,08,11,02,41,14.20
2015,08,11,02,42,14.20
2015,08,11,02,43,14.20
2015,08,11,02,44,14.20
2015,08,11,02,45,14.10
2015,08,11,02,46,14.10
2015,08,11,02,47,14.10
2015,08,11,02,48,14.10
2015,08,11,02,49,14.10
2015,08,11,02,50,14.10
2015,08,11,02,51,14.10
2015,08,11,02,52,14.00
2015,08,11,02,53,14.00
2015,08,11,02,54,14.00
2015,08,11,02,55,14.00
2015,08,11,02,56,14.00
2015,08,11,02,57,14.00
2015,08,11,02,58,14.00
2015,08,11,02,59,14.00
2015,08,11,03,00,14.00
2015,08,11,03,01,13.90
2015,08,11,03,02,13.90
2015,08,11,03,03,13.90
2015,08,11,03,04,13.90
2015,08,11,03,05,13.90
2015,08,11,03,06,13.90
2015,08,11,03,07,13.90
2015,08,11,03,08,13.90
2015,08,11,03,09,13.90
2015,08,11,03,10,13.90
2015,08,11,03,11,13.90
2015,08,11,03,12,13.90
2015,08,11,03,13,13.90
2015,08,11,03,14,13.90
2015,08,11,03,15,13.90
2015,08,11,03,16,13.80
2015,08,11,03,17,13.80
2015,08,11,03,18,13.80
2015,08,11,03,19,13.80
2015,08,11,03,20,13.80
2015,08,11,03,21,13.80
2015,08,11,03,22,13.80
2015,08,11,03,23,13.80
2015,08,11,03,24,13.80
2015,08,11,03,25,13.80
2015,08,11,03,26,13.80
2015,08,11,03,27,13.80
2015,08,11,03,28,13.80
2015,08,11,03,29,13.80
2015,08,11,03,30,13.80
2015,08,11,03,31,13.80
2015,08,11,03,32,13.80
2015,08,11,03,33,13.80
2015,08,11,03,34,13.80
2015,08,11,03,35,13.80
2015,08,11,03,36,13.80
2015,08,11,03,37,13.80
2015,08,11,03,38,13.80
2015,08,11,03,39,13.80
2015,08,11,03,40,13.80
2015,08,11,03,41,13.80
2015,08,11,03,42,13.70
2015,08,11,03,43,13.70
2015,08,11,03,44,13.70
2015,08,11,03,45,13.70
2015,08,11,03,46,13.70
2015,08,11,03,47,13.70
2015,08,11,03,48,13.70
2015,08,11,03,49,13.70
2015,08,11,03,50,13.70
2015,08,11,03,51,13.70
2015,08,11,03,52,13.70
2015,08,11,03,53,13.70
2015,08,11,03,54,13.70
2015,08,11,03,55,13.70
2015,08,11,03,56,13.70
2015,08,11,03,57,13.60
2015,08,11,03,58,13.60
2015,08,11,03,59,13.60
2015,08,11,04,00,13.60
2015,08,11,04,01,13.60
2015,08,11,04,02,13.60
2015,08,11,04,03,13.60
2015,08,11,04,04,13.60
2015,08,11,04,05,13.60
2015,08,11,04,06,13.60
2015,08,11,04,07,13.60
2015,08,11,04,08,13.60
2015,08,11,04,09,13.50
2015,08,11,04,10,13.50
2015,08,11,04,11,13.50
2015,08,11,04,12,13.50
2015,08,11,04,13,13.50
2015,08,11,04,14,13.50
2015,08,11,04,15,13.50
2015,08,11,04,16,13.50
2015,08,11,04,17,13.40
2015,08,11,04,18,13.40
2015,08,11,04,19,13.40
2015,08,11,04,20,13.40
2015,08,11,04,21,13.40
2015,08,11,04,22,13.40
2015,08,11,04,23,13.40
2015,08,11,04,24,13.40
2015,08,11,04,25,13.40
2015,08,11,04,26,13.40
2015,08,11,04,27,13.40
2015,08,11,04,28,13.40
2015,08,11,04,29,13.40
2015,08,11,04,30,13.40
2015,08,11,04,31,13.40
2015,08,11,04,32,13.40
2015,08,11,04,33,13.40
2015,08,11,04,34,13.40
2015,08,11,04,35,13.40
2015,08,11,04,36,13.30
2015,08,11,04,37,13.30
2015,08,11,04,38,13.30
2015,08,11,04,39,13.30
2015,08,11,04,40,13.30
2015,08,11,04,41,13.30
2015,08,11,04,42,13.30
2015,08,11,04,43,13.20
2015,08,11,04,44,13.20
2015,08,11,04,45,13.20
2015,08,11,04,46,13.20
2015,08,11,04,47,13.20
2015,08,11,04,48,13.20
2015,08,11,04,49,13.20
2015,08,11,04,50,13.20
2015,08,11,04,51,13.20
2015,08,11,04,52,13.20
2015,08,11,04,53,13.20
2015,08,11,04,54,13.20
2015,08,11,04,55,13.20
2015,08,11,04,56,13.20
2015,08,11,04,57,13.10
2015,08,11,04,58,13.10
2015,08,11,04,59,13.10
2015,08,11,05,00,13.10
2015,08,11,05,01,13.10
2015,08,11,05,02,13.10
2015,08,11,05,03,13.10
2015,08,11,05,04,13.10
2015,08,11,05,05,13.10
2015,08,11,05,06,13.10
2015,08,11,05,07,13.10
2015,08,11,05,08,13.10
2015,08,11,05,09,13.10
2015,08,11,05,10,13.10
2015,08,11,05,11,13.10
2015,08,11,05,12,13.10
2015,08,11,05,13,13.10
2015,08,11,05,14,13.10
2015,08,11,05,15,13.10
2015,08,11,05,16,13.10
2015,08,11,05,17,13.10
2015,08,11,05,18,13.10
2015,08,11,05,19,13.10
2015,08,11,05,20,13.10
2015,08,11,05,21,13.10
2015,08,11,05,22,13.10
2015,08,11,05,23,13.10
2015,08,11,05,24,13.00
2015,08,11,05,25,13.00
2015,08,11,05,26,13.00
2015,08,11,05,27,13.00
2015,08,11,05,28,13.00
2015,08,11,05,29,12.90
2015,08,11,05,30,12.90
2015,08,11,05,31,12.90
2015,08,11,05,32,12.90
2015,08,11,05,33,12.90
2015,08,11,05,34,12.90
2015,08,11,05,35,12.90
2015,08,11,05,36,12.90
2015,08,11,05,37,12.80
2015,08,11,05,38,12.90
2015,08,11,05,39,12.80
2015,08,11,05,40,12.80
2015,08,11,05,41,12.80
2015,08,11,05,42,12.80
2015,08,11,05,43,12.80
2015,08,11,05,44,12.80
2015,08,11,05,45,12.80
2015,08,11,05,46,12.80
2015,08,11,05,47,12.80
2015,08,11,05,48,12.80
2015,08,11,05,49,12.80
2015,08,11,05,50,12.80
2015,08,11,05,51,12.80
2015,08,11,05,52,12.80
2015,08,11,05,53,12.80
2015,08,11,05,54,12.80
2015,08,11,05,55,12.80
2015,08,11,05,56,12.70
2015,08,11,05,57,12.70
2015,08,11,05,58,12.70
2015,08,11,05,59,12.70
2015,08,11,06,00,12.70
2015,08,11,06,01,12.70
2015,08,11,06,02,12.60
2015,08,11,06,03,12.60
2015,08,11,06,04,12.60
2015,08,11,06,05,12.60
2015,08,11,06,06,12.60
2015,08,11,06,07,12.60
2015,08,11,06,08,12.60
2015,08,11,06,09,12.60
2015,08,11,06,10,12.60
2015,08,11,06,11,12.60
2015,08,11,06,12,12.60
2015,08,11,06,13,12.50
2015,08,11,06,14,12.50
2015,08,11,06,15,12.50
2015,08,11,06,16,12.50
2015,08,11,06,17,12.50
2015,08,11,06,18,12.50
2015,08,11,06,19,12.50
2015,08,11,06,20,12.50
2015,08,11,06,21,12.50
2015,08,11,06,22,12.50
2015,08,11,06,23,12.50
2015,08,11,06,24,12.50
2015,08,11,06,25,12.50
2015,08,11,06,26,12.50
2015,08,11,06,27,12.50
2015,08,11,06,28,12.50
2015,08,11,06,29,12.50
2015,08,11,06,30,12.50
2015,08,11,06,31,12.40
2015,08,11,06,32,12.40
2015,08,11,06,33,12.40
2015,08,11,06,34,12.40
2015,08,11,06,35,12.40
2015,08,11,06,36,12.40
2015,08,11,06,37,12.40
2015,08,11,06,38,12.40
2015,08,11,06,39,12.40
2015,08,11,06,40,12.40
2015,08,11,06,41,12.40
2015,08,11,06,42,12.40
2015,08,11,06,43,12.40
2015,08,11,06,44,12.40
2015,08,11,06,45,12.40
2015,08,11,06,46,12.40
2015,08,11,06,47,12.40
2015,08,11,06,48,12.40
2015,08,11,06,49,12.40
2015,08,11,06,50,12.40
2015,08,11,06,51,12.50
2015,08,11,06,52,12.50
2015,08,11,06,53,12.60
2015,08,11,06,54,12.60
2015,08,11,06,55,12.60
2015,08,11,06,56,12.60
2015,08,11,06,57,12.60
2015,08,11,06,58,12.60
2015,08,11,06,59,12.60
2015,08,11,07,00,12.70
2015,08,11,07,01,12.70
2015,08,11,07,02,12.70
2015,08,11,07,03,12.80
2015,08,11,07,04,12.80
2015,08,11,07,05,12.80
2015,08,11,07,06,12.80
2015,08,11,07,07,12.90
2015,08,11,07,08,12.90
2015,08,11,07,09,13.00
2015,08,11,07,10,13.00
2015,08,11,07,11,13.10
2015,08,11,07,12,13.10
2015,08,11,07,13,13.20
2015,08,11,07,14,13.30
2015,08,11,07,15,13.30
2015,08,11,07,16,13.30
2015,08,11,07,17,13.40
2015,08,11,07,18,13.40
2015,08,11,07,19,13.50
2015,08,11,07,20,13.50
2015,08,11,07,21,13.60
2015,08,11,07,22,13.60
2015,08,11,07,23,13.60
2015,08,11,07,24,13.70
2015,08,11,07,25,13.70
2015,08,11,07,26,13.70
2015,08,11,07,27,13.80
2015,08,11,07,28,13.80
2015,08,11,07,29,13.90
2015,08,11,07,30,13.90
2015,08,11,07,31,14.00
2015,08,11,07,32,14.10
2015,08,11,07,33,14.20
2015,08,11,07,34,14.30
2015,08,11,07,35,14.30
2015,08,11,07,36,14.30
2015,08,11,07,37,14.40
2015,08,11,07,38,14.50
2015,08,11,07,39,14.50
2015,08,11,07,40,14.60
2015,08,11,07,41,14.60
2015,08,11,07,42,14.70
2015,08,11,07,43,14.80
2015,08,11,07,44,14.90
2015,08,11,07,45,14.90
2015,08,11,07,46,15.00
2015,08,11,07,47,15.10
2015,08,11,07,48,15.20
2015,08,11,07,49,15.30
2015,08,11,07,50,15.40
2015,08,11,07,51,15.50
2015,08,11,07,52,15.60
2015,08,11,07,53,15.70
2015,08,11,07,54,15.80
2015,08,11,07,55,15.80
2015,08,11,07,56,15.90
2015,08,11,07,57,15.90
2015,08,11,07,58,16.00
2015,08,11,07,59,16.00
2015,08,11,08,00,16.10
2015,08,11,08,01,16.20
2015,08,11,08,02,16.20
2015,08,11,08,03,16.30
2015,08,11,08,04,16.30
2015,08,11,08,05,16.40
2015,08,11,08,06,16.50
2015,08,11,08,07,16.60
2015,08,11,08,08,16.70
2015,08,11,08,09,16.80
2015,08,11,08,10,16.90
2015,08,11,08,11,16.90
2015,08,11,08,12,17.00
2015,08,11,08,13,17.00
2015,08,11,08,14,17.10
2015,08,11,08,15,17.10
2015,08,11,08,16,17.20
2015,08,11,08,17,17.30
2015,08,11,08,18,17.30
2015,08,11,08,19,17.40
2015,08,11,08,20,17.40
2015,08,11,08,21,17.50
2015,08,11,08,22,17.60
2015,08,11,08,23,17.70
2015,08,11,08,24,17.80
2015,08,11,08,25,17.80
2015,08,11,08,26,17.90
2015,08,11,08,27,18.00
2015,08,11,08,28,18.10
2015,08,11,08,29,18.10
2015,08,11,08,30,18.10
2015,08,11,08,31,18.20
2015,08,11,08,32,18.20
2015,08,11,08,33,18.30
2015,08,11,08,34,18.30
2015,08,11,08,35,18.50
2015,08,11,08,36,18.60
2015,08,11,08,37,18.70
2015,08,11,08,38,18.80
2015,08,11,08,39,18.80
2015,08,11,08,40,18.90
2015,08,11,08,41,18.90
2015,08,11,08,42,18.90
2015,08,11,08,43,19.00
2015,08,11,08,44,19.10
2015,08,11,08,45,19.20
2015,08,11,08,46,19.20
2015,08,11,08,47,19.30
2015,08,11,08,48,19.40
2015,08,11,08,49,19.40
2015,08,11,08,50,19.40
2015,08,11,08,51,19.50
2015,08,11,08,52,19.50
2015,08,11,08,53,19.60
2015,08,11,08,54,19.60
2015,08,11,08,55,19.60
2015,08,11,08,56,19.60
2015,08,11,08,57,19.60
2015,08,11,08,58,19.70
2015,08,11,08,59,19.70
2015,08,11,09,00,19.70
2015,08,11,09,01,19.70
2015,08,11,09,02,19.80
2015,08,11,09,03,19.80
2015,08,11,09,04,19.90
2015,08,11,09,05,19.90
2015,08,11,09,06,19.90
2015,08,11,09,07,19.90
2015,08,11,09,08,19.90
2015,08,11,09,09,19.90
2015,08,11,09,10,19.90
2015,08,11,09,11,19.90
2015,08,11,09,12,19.80
2015,08,11,09,13,19.80
2015,08,11,09,14,19.70
2015,08,11,09,15,19.70
2015,08,11,09,16,19.70
2015,08,11,09,17,19.70
2015,08,11,09,18,19.80
2015,08,11,09,19,19.80
2015,08,11,09,20,19.90
2015,08,11,09,21,20.00
2015,08,11,09,22,20.00
2015,08,11,09,23,20.10
2015,08,11,09,24,20.10
2015,08,11,09,25,20.10
2015,08,11,09,26,20.00
2015,08,11,09,27,19.90
2015,08,11,09,28,19.90
2015,08,11,09,29,19.80
2015,08,11,09,30,19.70
2015,08,11,09,31,19.80
2015,08,11,09,32,19.80
2015,08,11,09,33,19.90
2015,08,11,09,34,20.00
2015,08,11,09,35,20.10
2015,08,11,09,36,20.20
2015,08,11,09,37,20.20
2015,08,11,09,38,20.20
2015,08,11,09,39,20.30
2015,08,11,09,40,20.30
2015,08,11,09,41,20.40
2015,08,11,09,42,20.40
2015,08,11,09,43,20.50
2015,08,11,09,44,20.60
2015,08,11,09,45,20.70
2015,08,11,09,46,20.70
2015,08,11,09,47,20.70
2015,08,11,09,48,20.80
2015,08,11,09,49,20.90
2015,08,11,09,50,21.00
2015,08,11,09,51,21.10
2015,08,11,09,52,21.10
2015,08,11,09,53,21.20
2015,08,11,09,54,21.20
2015,08,11,09,55,21.20
2015,08,11,09,56,21.30
2015,08,11,09,57,21.40
2015,08,11,09,58,21.40
2015,08,11,09,59,21.50
2015,08,11,10,00,21.60
2015,08,11,10,01,21.60
2015,08,11,10,02,21.60
2015,08,11,10,03,21.50
2015,08,11,10,04,21.50
2015,08,11,10,05,21.40
2015,08,11,10,06,21.40
2015,08,11,10,07,21.40
2015,08,11,10,08,21.50
2015,08,11,10,09,21.50
2015,08,11,10,10,21.60
2015,08,11,10,11,21.60
2015,08,11,10,12,21.60
2015,08,11,10,13,21.70
2015,08,11,10,14,21.70
2015,08,11,10,15,21.70
2015,08,11,10,16,21.80
2015,08,11,10,17,21.80
2015,08,11,10,18,21.90
2015,08,11,10,19,21.90
2015,08,11,10,20,21.90
2015,08,11,10,21,21.80
2015,08,11,10,22,21.70
2015,08,11,10,23,21.70
2015,08,11,10,24,21.60
2015,08,11,10,25,21.50
2015,08,11,10,26,21.50
2015,08,11,10,27,21.40
2015,08,11,10,28,21.40
2015,08,11,10,29,21.50
2015,08,11,10,30,21.50
2015,08,11,10,31,21.60
2015,08,11,10,32,21.60
2015,08,11,10,33,21.60
2015,08,11,10,34,21.60
2015,08,11,10,35,21.60
2015,08,11,10,36,21.60
2015,08,11,10,37,21.60
2015,08,11,10,38,21.60
2015,08,11,10,39,21.60
2015,08,11,10,40,21.60
2015,08,11,10,41,21.60
2015,08,11,10,42,21.60
2015,08,11,10,43,21.60
2015,08,11,10,44,21.50
2015,08,11,10,45,21.50
2015,08,11,10,46,21.40
2015,08,11,10,47,21.40
2015,08,11,10,48,21.40
2015,08,11,10,49,21.40
2015,08,11,10,50,21.40
2015,08,11,10,51,21.40
2015,08,11,10,52,21.40
2015,08,11,10,53,21.40
2015,08,11,10,54,21.40
2015,08,11,10,55,21.30
2015,08,11,10,56,21.30
2015,08,11,10,57,21.30
2015,08,11,10,58,21.30
2015,08,11,10,59,21.30
2015,08,11,11,00,21.20
2015,08,11,11,01,21.20
2015,08,11,11,02,21.20
2015,08,11,11,03,21.10
2015,08,11,11,04,21.10
2015,08,11,11,05,21.00
2015,08,11,11,06,20.90
2015,08,11,11,07,20.90
2015,08,11,11,08,20.90
2015,08,11,11,09,20.90
2015,08,11,11,10,21.00
2015,08,11,11,11,21.10
2015,08,11,11,12,21.20
2015,08,11,11,13,21.20
2015,08,11,11,14,21.20
2015,08,11,11,15,21.30
2015,08,11,11,16,21.40
2015,08,11,11,17,21.50
2015,08,11,11,18,21.60
2015,08,11,11,19,21.70
2015,08,11,11,20,21.80
2015,08,11,11,21,22.00
2015,08,11,11,22,22.10
2015,08,11,11,23,22.20
2015,08,11,11,24,22.20
2015,08,11,11,25,22.20
2015,08,11,11,26,22.20
2015,08,11,11,27,22.10
2015,08,11,11,28,22.10
2015,08,11,11,29,22.10
2015,08,11,11,30,22.10
2015,08,11,11,31,22.00
2015,08,11,11,32,22.00
2015,08,11,11,33,22.00
2015,08,11,11,34,22.00
2015,08,11,11,35,22.10
2015,08,11,11,36,22.10
2015,08,11,11,37,22.10
2015,08,11,11,38,22.10
2015,08,11,11,39,22.20
2015,08,11,11,40,22.30
2015,08,11,11,41,22.30
2015,08,11,11,42,22.40
2015,08,11,11,43,22.40
2015,08,11,11,44,22.50
2015,08,11,11,45,22.40
2015,08,11,11,46,22.40
2015,08,11,11,47,22.40
2015,08,11,11,48,22.40
2015,08,11,11,49,22.40
2015,08,11,11,50,22.50
2015,08,11,11,51,22.50
2015,08,11,11,52,22.60
2015,08,11,11,53,22.70
2015,08,11,11,54,22.70
2015,08,11,11,55,22.80
2015,08,11,11,56,22.80
2015,08,11,11,57,22.80
2015,08,11,11,58,22.90
2015,08,11,11,59,23.10
2015,08,11,12,00,23.20
2015,08,11,12,01,23.20
2015,08,11,12,02,23.30
2015,08,11,12,03,23.30
2015,08,11,12,04,23.20
2015,08,11,12,05,23.10
2015,08,11,12,06,23.10
2015,08,11,12,07,23.00
2015,08,11,12,08,23.00
2015,08,11,12,09,22.90
2015,08,11,12,10,22.90
2015,08,11,12,11,22.90
2015,08,11,12,12,22.90
2015,08,11,12,13,23.00
2015,08,11,12,14,23.10
2015,08,11,12,15,23.10
2015,08,11,12,16,23.20
2015,08,11,12,17,23.20
2015,08,11,12,18,23.20
2015,08,11,12,19,23.20
2015,08,11,12,20,23.20
2015,08,11,12,21,23.20
2015,08,11,12,22,23.30
2015,08,11,12,23,23.30
2015,08,11,12,24,23.40
2015,08,11,12,25,23.50
2015,08,11,12,26,23.60
2015,08,11,12,27,23.70
2015,08,11,12,28,23.90
2015,08,11,12,29,24.00
2015,08,11,12,30,24.00
2015,08,11,12,31,24.10
2015,08,11,12,32,24.10
2015,08,11,12,33,24.10
2015,08,11,12,34,24.10
2015,08,11,12,35,24.10
2015,08,11,12,36,24.10
2015,08,11,12,37,24.10
2015,08,11,12,38,24.10
2015,08,11,12,39,24.10
2015,08,11,12,40,24.10
2015,08,11,12,41,24.10
2015,08,11,12,42,24.10
2015,08,11,12,43,24.10
2015,08,11,12,44,24.00
2015,08,11,12,45,23.90
2015,08,11,12,46,23.90
2015,08,11,12,47,23.90
2015,08,11,12,48,23.90
2015,08,11,12,49,23.90
2015,08,11,12,50,23.90
2015,08,11,12,51,23.90
2015,08,11,12,52,24.00
2015,08,11,12,53,24.20
2015,08,11,12,54,24.30
2015,08,11,12,55,24.40
2015,08,11,12,56,24.50
2015,08,11,12,57,24.60
2015,08,11,12,58,24.70
2015,08,11,12,59,24.80
2015,08,11,13,00,24.80
2015,08,11,13,01,24.90
2015,08,11,13,02,24.90
2015,08,11,13,03,24.90
2015,08,11,13,04,24.90
2015,08,11,13,05,25.00
2015,08,11,13,06,25.00
2015,08,11,13,07,25.00
2015,08,11,13,08,25.00
2015,08,11,13,09,25.10
2015,08,11,13,10,25.10
2015,08,11,13,11,25.10
2015,08,11,13,12,25.10
2015,08,11,13,13,25.10
2015,08,11,13,14,25.10
2015,08,11,13,15,25.10
2015,08,11,13,16,25.10
2015,08,11,13,17,25.10
2015,08,11,13,18,25.10
2015,08,11,13,19,25.10
2015,08,11,13,20,25.10
2015,08,11,13,21,25.10
2015,08,11,13,22,25.10
2015,08,11,13,23,25.20
2015,08,11,13,24,25.30
2015,08,11,13,25,25.30
2015,08,11,13,26,25.30
2015,08,11,13,27,25.40
2015,08,11,13,28,25.40
2015,08,11,13,29,25.40
2015,08,11,13,30,25.50
2015,08,11,13,31,25.50
2015,08,11,13,32,25.50
2015,08,11,13,33,25.40
2015,08,11,13,34,25.40
2015,08,11,13,35,25.30
2015,08,11,13,36,25.20
2015,08,11,13,37,25.10
2015,08,11,13,38,25.00
2015,08,11,13,39,25.00
2015,08,11,13,40,25.00
2015,08,11,13,41,24.90
2015,08,11,13,42,25.00
2015,08,11,13,43,25.00
2015,08,11,13,44,25.10
2015,08,11,13,45,25.10
2015,08,11,13,46,25.20
2015,08,11,13,47,25.30
2015,08,11,13,48,25.40
2015,08,11,13,49,25.50
2015,08,11,13,50,25.60
2015,08,11,13,51,25.60
2015,08,11,13,52,25.70
2015,08,11,13,53,25.80
2015,08,11,13,54,25.90
2015,08,11,13,55,26.00
2015,08,11,13,56,26.00
2015,08,11,13,57,26.10
2015,08,11,13,58,26.10
2015,08,11,13,59,26.10
2015,08,11,14,00,26.00
2015,08,11,14,01,26.00
2015,08,11,14,02,25.90
2015,08,11,14,03,25.90
2015,08,11,14,04,25.90
2015,08,11,14,05,25.90
2015,08,11,14,06,26.00
2015,08,11,14,07,26.00
2015,08,11,14,08,26.00
2015,08,11,14,09,26.10
2015,08,11,14,10,26.10
2015,08,11,14,11,26.20
2015,08,11,14,12,26.20
2015,08,11,14,13,26.20
2015,08,11,14,14,26.20
2015,08,11,14,15,26.20
2015,08,11,14,16,26.30
2015,08,11,14,17,26.30
2015,08,11,14,18,26.30
2015,08,11,14,19,26.30
2015,08,11,14,20,26.30
2015,08,11,14,21,26.30
2015,08,11,14,22,26.30
2015,08,11,14,23,26.30
2015,08,11,14,24,26.30
2015,08,11,14,25,26.30
2015,08,11,14,26,26.40
2015,08,11,14,27,26.40
2015,08,11,14,28,26.40
2015,08,11,14,29,26.50
2015,08,11,14,30,26.50
2015,08,11,14,31,26.60
2015,08,11,14,32,26.60
2015,08,11,14,33,26.60
2015,08,11,14,34,26.70
2015,08,11,14,35,26.70
2015,08,11,14,36,26.70
2015,08,11,14,37,26.70
2015,08,11,14,38,26.70
2015,08,11,14,39,26.80
2015,08,11,14,40,26.80
2015,08,11,14,41,26.90
2015,08,11,14,42,26.80
2015,08,11,14,43,26.80
2015,08,11,14,44,26.80
2015,08,11,14,45,26.80
2015,08,11,14,46,26.80
2015,08,11,14,47,26.80
2015,08,11,14,48,26.80
2015,08,11,14,49,26.90
2015,08,11,14,50,26.90
2015,08,11,14,51,27.00
2015,08,11,14,52,27.10
2015,08,11,14,53,27.10
2015,08,11,14,54,27.20
2015,08,11,14,55,27.20
2015,08,11,14,56,27.20
2015,08,11,14,57,27.20
2015,08,11,14,58,27.10
2015,08,11,14,59,27.10
2015,08,11,15,00,27.00
2015,08,11,15,01,27.00
2015,08,11,15,02,26.90
2015,08,11,15,03,26.90
2015,08,11,15,04,26.80
2015,08,11,15,05,26.90
2015,08,11,15,06,26.90
2015,08,11,15,07,27.00
2015,08,11,15,08,27.00
2015,08,11,15,09,27.10
2015,08,11,15,10,27.10
2015,08,11,15,11,27.10
2015,08,11,15,12,27.10
2015,08,11,15,13,27.20
2015,08,11,15,14,27.20
2015,08,11,15,15,27.20
2015,08,11,15,16,27.30
2015,08,11,15,17,27.30
2015,08,11,15,18,27.30
2015,08,11,15,19,27.30
2015,08,11,15,20,27.30
2015,08,11,15,21,27.30
2015,08,11,15,22,27.30
2015,08,11,15,23,27.30
2015,08,11,15,24,27.30
2015,08,11,15,25,27.30
2015,08,11,15,26,27.20
2015,08,11,15,27,27.20
2015,08,11,15,28,27.20
2015,08,11,15,29,27.20
2015,08,11,15,30,27.20
2015,08,11,15,31,27.20
2015,08,11,15,32,27.20
2015,08,11,15,33,27.20
2015,08,11,15,34,27.20
2015,08,11,15,35,27.20
2015,08,11,15,36,27.20
2015,08,11,15,37,27.20
2015,08,11,15,38,27.30
2015,08,11,15,39,27.30
2015,08,11,15,40,27.30
2015,08,11,15,41,27.20
2015,08,11,15,42,27.20
2015,08,11,15,43,27.20
2015,08,11,15,44,27.20
2015,08,11,15,45,27.10
2015,08,11,15,46,27.10
2015,08,11,15,47,27.10
2015,08,11,15,48,27.10
2015,08,11,15,49,27.10
2015,08,11,15,50,27.10
2015,08,11,15,51,27.10
2015,08,11,15,52,27.20
2015,08,11,15,53,27.20
2015,08,11,15,54,27.30
2015,08,11,15,55,27.30
2015,08,11,15,56,27.30
2015,08,11,15,57,27.30
2015,08,11,15,58,27.40
2015,08,11,15,59,27.50
2015,08,11,16,00,27.60
2015,08,11,16,01,27.60
2015,08,11,16,02,27.70
2015,08,11,16,03,27.70
2015,08,11,16,04,27.70
2015,08,11,16,05,27.80
2015,08,11,16,06,27.80
2015,08,11,16,07,27.80
2015,08,11,16,08,27.80
2015,08,11,16,09,27.80
2015,08,11,16,10,27.80
2015,08,11,16,11,27.70
2015,08,11,16,12,27.70
2015,08,11,16,13,27.60
2015,08,11,16,14,27.60
2015,08,11,16,15,27.50
2015,08,11,16,16,27.50
2015,08,11,16,17,27.40
2015,08,11,16,18,27.40
2015,08,11,16,19,27.40
2015,08,11,16,20,27.40
2015,08,11,16,21,27.40
2015,08,11,16,22,27.40
2015,08,11,16,23,27.40
2015,08,11,16,24,27.40
2015,08,11,16,25,27.40
2015,08,11,16,26,27.50
2015,08,11,16,27,27.50
2015,08,11,16,28,27.50
2015,08,11,16,29,27.60
2015,08,11,16,30,27.60
2015,08,11,16,31,27.60
2015,08,11,16,32,27.70
2015,08,11,16,33,27.70
2015,08,11,16,34,27.70
2015,08,11,16,35,27.70
2015,08,11,16,36,27.70
2015,08,11,16,37,27.70
2015,08,11,16,38,27.70
2015,08,11,16,39,27.60
2015,08,11,16,40,27.60
2015,08,11,16,41,27.60
2015,08,11,16,42,27.60
2015,08,11,16,43,27.60
2015,08,11,16,44,27.60
2015,08,11,16,45,27.70
2015,08,11,16,46,27.70
2015,08,11,16,47,27.80
2015,08,11,16,48,27.80
2015,08,11,16,49,27.90
2015,08,11,16,50,27.90
2015,08,11,16,51,27.90
2015,08,11,16,52,27.90
2015,08,11,16,53,27.90
2015,08,11,16,54,27.90
2015,08,11,16,55,27.90
2015,08,11,16,56,27.90
2015,08,11,16,57,27.90
2015,08,11,16,58,27.90
2015,08,11,16,59,27.90
2015,08,11,17,00,27.90
2015,08,11,17,01,28.00
2015,08,11,17,02,28.00
2015,08,11,17,03,28.10
2015,08,11,17,04,28.20
2015,08,11,17,05,28.20
2015,08,11,17,06,28.20
2015,08,11,17,07,28.20
2015,08,11,17,08,28.30
2015,08,11,17,09,28.20
2015,08,11,17,10,28.20
2015,08,11,17,11,28.10
2015,08,11,17,12,28.00
2015,08,11,17,13,27.90
2015,08,11,17,14,27.80
2015,08,11,17,15,27.80
2015,08,11,17,16,27.70
2015,08,11,17,17,27.70
2015,08,11,17,18,27.70
2015,08,11,17,19,27.60